YAOGAN-41

Last updated on Sun Apr 12 2026 00:02:56 GMT+0000 (Coordinated Universal Time)

1 58582U 23197A 26101.47379512 -.00000364 00000+0 00000+0 0 9990 2 58582 3.2534 312.1181 0012107 181.8217 359.5488 1.00269135 8651
UTC large
Height (km)
Speed (km/s)
/
Latitude / Longitude
Inclination (degrees)
Orbital Period (minutes)
Azimuth
Elevation
Range (km)
Doppler Factor

Next 0 passes for location: London (51.5072 / 0.1276)

Sorry there are no passes over London.
YAOGAN-41